Location: Mountain View
(37.3861°N, 122.0839°W)
Time: 03:51:31
(UTC-07:00)

Tiangong 2 - Visible Passes

Search period start: 30 March 2017 00:00
Search period end: 09 April 2017 00:00
Orbit: 374 x 383 km, 42.8° (Epoch: 28 March)

Date Brightness Start Highest point End Pass type
(mag) Time Alt. Az. Time Alt. Az. Time Alt. Az.
01 Apr 2.6 20:49:28 10° SSW 20:51:10 22° S 20:51:10 22° S visible
02 Apr 2.7 21:23:53 10° WSW 21:25:32 28° WSW 21:25:32 28° WSW visible
03 Apr 1.4 20:22:32 10° SW 20:25:30 44° SSE 20:27:33 17° E visible
03 Apr 4.3 21:59:11 10° W 21:59:40 13° W 21:59:40 13° W visible
04 Apr 1.4 20:57:25 10° WSW 21:00:29 60° NNW 21:01:28 37° NE visible
05 Apr 2.8 21:32:50 10° WNW 21:35:12 30° NNW 21:35:12 30° NNW visible
06 Apr 2.1 20:30:59 10° W 20:33:57 42° NNW 20:36:41 12° ENE visible
06 Apr 4.4 22:08:12 10° WNW 22:08:47 14° NW 22:08:47 14° NW visible
07 Apr 2.7 21:06:24 10° WNW 21:09:11 29° N 21:10:09 24° NNE visible
08 Apr 2.5 20:04:31 10° WNW 20:07:23 33° N 20:10:15 10° ENE visible
08 Apr 3.1 21:41:36 10° WNW 21:43:31 26° NNW 21:43:31 26° NNW visible
